Location: Azul
(36.7830°S, 59.8500°W)
Time: 17:49:03
(UTC-03:00)

ZACube-1 - Pass Details

Date: 01 November 2021
Orbit: 584 x 664 km, 97.6° (Epoch: 07 December)

Event Time Altitude Azimuth Distance (km) Brightness Sun altitude
Rises 04:35:40 0° 14° (NNE) 2,944 ? -15.0°
Reaches altitude 10° 04:37:50 10° 14° (NNE) 2,053 ? -14.6°
Maximum altitude 04:42:20 87° 100° (E) 671 ? -13.8°
Drops below altitude 10° 04:46:59 10° 191° (S) 2,113 ? -13.0°
Sets 04:49:15 0° 191° (S) 3,038 ? -12.6°
